User: anonymous   Login
Location: Hokitika
(42.7170°S, 170.9670°E)
Time: 13:29:15
(UTC+13:00)
Language:

Meteor 2-8 Rocket - Orbit

View from above orbital plane
View from above orbital plane
View from above satellite
View from above satellite

Ground track
Ground track

The orbit data is extracted from the following two-line orbital elements,

1 13114U 82025B   19317.20224002  .00000031  00000-0  14321-4 0  9999
2 13114  82.5424 223.3043 0014022 196.5159 327.6853 13.84673563902055
Epoch (UTC): 13 November 2019 04:51:13
Eccentricity: 0.0014022
inclination: 82.5424°
perigee height: 937 km
apogee height: 957 km
right ascension of ascending node: 223.3043°
argument of perigee: 196.5159°
revolutions per day: 13.84673563
mean anomaly at epoch: 327.6853°
orbit number at epoch: 90205

The dashed part of the orbit path shows where the satellite is in the earth's shadow,  

DLR